This is the latest recevied weather packets stored in our database for station/object N9BSW. If no packets are shown the sender has not sent any weather packets the latest 10 day(s).
| Time | Temp. | Humidity | Pressure | Rain* | Wind** | Luminosity | Snow |
|---|---|---|---|---|---|---|---|
| 1777219768 | 17.22° C | 65% | 1017.8 hPa | 0 mm | - | 751 W/m² | - |
| 1777219466 | 17.22° C | 63% | 1017.9 hPa | 0 mm | - | 746 W/m² | - |
| 1777219161 | 17.22° C | 67% | 1018.1 hPa | 0 mm | - | 723 W/m² | - |
| 1777218857 | 16.67° C | 66% | 1017.8 hPa | 0 mm | - | 725 W/m² | - |
| 1777218554 | 16.11° C | 68% | 1018 hPa | 0 mm | - | 713 W/m² | - |
| 1777218248 | 16.11° C | 66% | 1018.1 hPa | 0 mm | - | 700 W/m² | - |
| 1777217945 | 15.56° C | 67% | 1018.1 hPa | 0 mm | - | 684 W/m² | - |
| 1777217641 | 15.56° C | 66% | 1017.9 hPa | 0 mm | - | 688 W/m² | - |
| 1777217337 | 16.11° C | 64% | 1018 hPa | 0 mm | - | 681 W/m² | - |
| 1777217033 | 16.11° C | 67% | 1017.8 hPa | 0 mm | - | 690 W/m² | - |
| 1777216730 | 15.56° C | 71% | 1017.9 hPa | 0 mm | - | 611 W/m² | - |
| 1777216431 | 15.56° C | 70% | 1017.9 hPa | 0 mm | - | 428 W/m² | - |
| 1777216130 | 14.44° C | 71% | 1018 hPa | 0 mm | - | 665 W/m² | - |
| 1777215825 | 14.44° C | 74% | 1018 hPa | 0 mm | - | 285 W/m² | - |
| 1777215521 | 15° C | 71% | 1017.9 hPa | 0 mm | - | 693 W/m² | - |
| 1777215218 | 13.89° C | 76% | 1017.5 hPa | 0 mm | - | 525 W/m² | - |
| 1777214914 | 13.33° C | 75% | 1018 hPa | 0 mm | - | 354 W/m² | - |
| 1777214612 | 13.33° C | 75% | 1017.8 hPa | 0 mm | - | 356 W/m² | - |
| 1777214308 | 13.33° C | 76% | 1018.1 hPa | 0 mm | - | 351 W/m² | - |
| 1777214007 | 13.33° C | 74% | 1017.8 hPa | 0 mm | - | 322 W/m² | - |
| 1777213702 | 13.33° C | 77% | 1017.9 hPa | 0 mm | - | 327 W/m² | - |
| 1777213398 | 12.78° C | 77% | 1018.1 hPa | 0 mm | - | 326 W/m² | - |
| 1777213096 | 12.78° C | 77% | 1017.7 hPa | 0 mm | - | 285 W/m² | - |
| 1777212792 | 12.78° C | 77% | 1017.9 hPa | 0 mm | - | 242 W/m² | - |
| 1777212488 | 12.22° C | 79% | 1017.9 hPa | 0 mm | - | 299 W/m² | - |
* Rain latest hour (hover to see other rain measurements)
** Current wind speed in m/s (hover to see current wind gust speed)